Weather History for Cagliari, Italy

Change the Weather History Date:

Tuesday, September 25, 2012

  Actual Average Record
Temperature  
Mean Temperature 72 °F -  
Max Temperature 76 °F 74 °F 84 °F (1998)
Min Temperature 67 °F 58 °F 55 °F (1996)
Cooling Degree Days 6    
Growing Degree Days 22 (Base 50)    
Moisture  
Dew Point 62 °F    
Average Humidity 69    
Maximum Humidity 78    
Minimum Humidity 43    
Precipitation  
Precipitation 0.00 in 0.07 in - ()
Sea Level Pressure  
Sea Level Pressure 29.91 in    
Wind  
Wind Speed 4 mph ()    
Max Wind Speed 14 mph    
Max Gust Speed -    
Visibility 6.1 miles    
Events Rain    
Averages and records for this station are not official NWS values.
T = Trace of Precipitation, MM = Missing Value Source: Averaged Metar Reports

Daily Weather History Graph

Daily Weather History Graph

Search for Another Location

Airport:

Trip Planner

Search our weather history database for the weather conditions in past years. The results will help you decide how hot, cold, wet, or windy it might be!

Date:

Astronomy

Sep. 25, 2012 Rise Set
Actual Time 7:14 AM CEST 7:15 PM CEST
Civil Twilight 6:47 AM CEST 7:42 PM CEST
Nautical Twilight 6:16 AM CEST 8:13 PM CEST
Astronomical Twilight 5:44 AM CEST 8:44 PM CEST
Moon 4:28 PM CEST (9/25) 2:19 AM CEST (9/25)
Length of Visible Light 12h 54m
Length of Day
12h 01m
Waxing Gibbous, 77% of the Moon is Illuminated
Sep 25
Waxing Gibbous
Sep 30
Full
Oct 8
Last Quarter
Oct 15
New
Oct 22
First Quarter

Hourly Weather History & Observations

Time (CEST) Temp. Dew Point Humidity Pressure Visibility Wind Dir Wind Speed Gust Speed Precip Events Conditions
12:15 AM 69.8 °F 62.6 °F 78% 29.95 in 6.2 mi NW 5.8 mph - N/A   Partly Cloudy
12:45 AM 69.8 °F 60.8 °F 73% 29.95 in 6.2 mi NW 4.6 mph - N/A   Partly Cloudy
12:55 AM 69.8 °F 60.8 °F 73% 29.95 in 6.2 mi NW 4.6 mph - N/A   Partly Cloudy
1:15 AM 69.8 °F 60.8 °F 73% 29.95 in 6.2 mi NE 3.5 mph - N/A   Partly Cloudy
1:45 AM 69.8 °F 60.8 °F 73% 29.95 in 6.2 mi ENE 1.2 mph - N/A   Partly Cloudy
1:55 AM 69.8 °F 60.8 °F 73% 29.95 in 6.2 mi ENE 1.2 mph - N/A   Partly Cloudy
2:00 AM 69 °F 61 °F 70% 29.96 in 7 mi ENE 1.2 mph - -   Scattered Clouds
2:15 AM 68.0 °F 60.8 °F 78% 29.95 in 6.2 mi ENE 2.3 mph - N/A   Partly Cloudy
2:45 AM 68.0 °F 60.8 °F 78% 29.92 in 6.2 mi NE 3.5 mph - N/A   Partly Cloudy
2:55 AM 68.0 °F 60.8 °F 78% 29.92 in 6.2 mi NE 3.5 mph - N/A   Partly Cloudy
3:15 AM 68.0 °F 60.8 °F 78% 29.92 in 6.2 mi Calm Calm - N/A   Partly Cloudy
3:45 AM 68.0 °F 60.8 °F 78% 29.92 in 6.2 mi NE 4.6 mph - N/A   Partly Cloudy
3:55 AM 68.0 °F 60.8 °F 78% 29.92 in 6.2 mi NE 4.6 mph - N/A   Partly Cloudy
4:15 AM 68.0 °F 60.8 °F 78% 29.92 in 6.2 mi NE 4.6 mph - N/A   Partly Cloudy
4:45 AM 68.0 °F 60.8 °F 78% 29.92 in 6.2 mi NW 2.3 mph - N/A   Partly Cloudy
4:55 AM 68.0 °F 60.8 °F 78% 29.92 in 6.2 mi NW 2.3 mph - N/A   Partly Cloudy
5:00 AM 69 °F 61 °F 68% 29.92 in 7 mi NW 2.3 mph - -   Scattered Clouds
5:15 AM 68.0 °F 60.8 °F 78% 29.92 in 6.2 mi NW 2.3 mph - N/A   Partly Cloudy
5:45 AM 68.0 °F 60.8 °F 78% 29.92 in 6.2 mi Calm Calm - N/A   Partly Cloudy
6:15 AM 68.0 °F 60.8 °F 78% 29.92 in 6.2 mi North 1.2 mph - N/A   Partly Cloudy
6:45 AM 69.8 °F 60.8 °F 73% 29.89 in 6.2 mi NE 3.5 mph - N/A   Scattered Clouds
6:55 AM 69.8 °F 60.8 °F 73% 29.89 in 6.2 mi NE 3.5 mph - N/A   Scattered Clouds
7:15 AM 69.8 °F 62.6 °F 78% 29.89 in 6.2 mi East 6.9 mph - N/A   Scattered Clouds
7:45 AM 71.6 °F 62.6 °F 73% 29.89 in 6.2 mi ENE 2.3 mph - N/A   Scattered Clouds
7:55 AM 71.6 °F 62.6 °F 73% 29.89 in 6.2 mi ENE 2.3 mph - N/A   Scattered Clouds
8:00 AM 71 °F 62 °F 67% 29.91 in 7 mi ENE 2.3 mph - -   Mostly Cloudy
8:15 AM 71.6 °F 62.6 °F 73% 29.89 in 6.2 mi Calm Calm - N/A Rain Light Rain
8:45 AM 71.6 °F 62.6 °F 73% 29.89 in 6.2 mi NNE 1.2 mph - N/A Rain Light Rain
8:55 AM 71.6 °F 62.6 °F 73% 29.89 in 6.2 mi NNE 1.2 mph - N/A Rain Light Rain
9:15 AM 75.2 °F 60.8 °F 61% 29.89 in 6.2 mi SW 13.8 mph - N/A   Light Drizzle
9:45 AM 77.0 °F 57.2 °F 50% 29.89 in 6.2 mi SSW 10.4 mph - N/A   Mostly Cloudy
9:55 AM 77.0 °F 57.2 °F 50% 29.89 in 6.2 mi SSW 10.4 mph - N/A   Mostly Cloudy
10:15 AM 75.2 °F 57.2 °F 53% 29.92 in 6.2 mi SSE 3.5 mph - N/A   Mostly Cloudy
10:45 AM 75.2 °F 57.2 °F 53% 29.92 in 6.2 mi SSE 1.2 mph - N/A   Mostly Cloudy
10:55 AM 75.2 °F 57.2 °F 53% 29.92 in 6.2 mi SSE 1.2 mph - N/A   Mostly Cloudy
11:00 AM 76 °F 58 °F 43% 29.92 in 6 mi SSE 1.2 mph - -   Partly Cloudy
11:15 AM 75.2 °F 59.0 °F 57% 29.92 in 6.2 mi ESE 2.3 mph - N/A   Mostly Cloudy
11:45 AM 75.2 °F 59.0 °F 57% 29.92 in 6.2 mi SSE 3.5 mph - N/A   Light Drizzle
11:55 AM 75.2 °F 59.0 °F 57% 29.92 in 6.2 mi SSE 3.5 mph - N/A   Light Drizzle
12:15 PM 75.2 °F 60.8 °F 61% 29.92 in 5.0 mi East 1.2 mph - N/A   Light Drizzle
12:45 PM 75.2 °F 60.8 °F 61% 29.89 in 5.0 mi West 2.3 mph - N/A   Light Drizzle
12:55 PM 75.2 °F 60.8 °F 61% 29.89 in 5.0 mi West 2.3 mph - N/A   Light Drizzle
1:15 PM 75.2 °F 60.8 °F 61% 29.89 in 5.0 mi WNW 2.3 mph - N/A   Mostly Cloudy
1:45 PM 75.2 °F 60.8 °F 61% 29.92 in 5.6 mi ESE 3.5 mph - N/A   Mostly Cloudy
1:55 PM 75.2 °F 60.8 °F 61% 29.92 in 5.6 mi ESE 3.5 mph - N/A   Mostly Cloudy
2:00 PM 74 °F 61 °F 54% 29.93 in 6 mi ESE 3.5 mph - -   Mist
2:15 PM 75.2 °F 60.8 °F 61% 29.92 in 5.6 mi WNW 2.3 mph - N/A   Mostly Cloudy
2:45 PM 75.2 °F 60.8 °F 61% 29.92 in 5.6 mi East 2.3 mph - N/A   Mostly Cloudy
2:55 PM 75.2 °F 60.8 °F 61% 29.92 in 5.6 mi East 2.3 mph - N/A   Mostly Cloudy
3:15 PM 75.2 °F 62.6 °F 65% 29.92 in 5.6 mi East 8.1 mph - N/A   Mostly Cloudy
3:45 PM 75.2 °F 64.4 °F 69% 29.92 in 5.6 mi SSE 10.4 mph - N/A   Mostly Cloudy
3:55 PM 75.2 °F 64.4 °F 69% 29.92 in 5.6 mi SSE 10.4 mph - N/A   Mostly Cloudy
4:15 PM 75.2 °F 62.6 °F 65% 29.92 in 5.6 mi SSE 10.4 mph - N/A   Mostly Cloudy
4:45 PM 73.4 °F 62.6 °F 69% 29.89 in 5.6 mi SSE 10.4 mph - N/A   Mostly Cloudy
4:55 PM 73.4 °F 62.6 °F 69% 29.89 in 5.6 mi SSE 10.4 mph - N/A   Mostly Cloudy
5:00 PM 74 °F 63 °F 61% 29.91 in 6 mi SSE 10.4 mph - -   Mist
5:15 PM 73.4 °F 62.6 °F 69% 29.89 in 5.6 mi SE 10.4 mph - N/A   Mostly Cloudy
5:45 PM 73.4 °F 66.2 °F 78% 29.89 in 5.6 mi SE 9.2 mph - N/A   Mostly Cloudy
5:55 PM 73.4 °F 66.2 °F 78% 29.89 in 5.6 mi SE 9.2 mph - N/A   Mostly Cloudy
6:15 PM 73.4 °F 66.2 °F 78% 29.89 in 5.6 mi SE 10.4 mph - N/A   Mostly Cloudy
6:45 PM 73.4 °F 66.2 °F 78% 29.89 in 5.6 mi SE 8.1 mph - N/A   Mostly Cloudy
6:55 PM 73.4 °F 66.2 °F 78% 29.89 in 5.6 mi SE 8.1 mph - N/A   Mostly Cloudy
7:15 PM 73.4 °F 66.2 °F 78% 29.89 in 5.6 mi SE 8.1 mph - N/A   Mostly Cloudy
7:45 PM 73.4 °F 64.4 °F 73% 29.89 in 6.2 mi ESE 8.1 mph - N/A   Mostly Cloudy
7:55 PM 73.4 °F 64.4 °F 73% 29.89 in 6.2 mi ESE 8.1 mph - N/A   Mostly Cloudy
8:00 PM 74 °F 65 °F 66% 29.89 in 6 mi ESE 8.1 mph - -   Partly Cloudy
8:15 PM 73.4 °F 64.4 °F 73% 29.89 in 6.2 mi ESE 6.9 mph - N/A   Mostly Cloudy
8:55 PM 73.4 °F 64.4 °F 73% 29.89 in 6.2 mi ESE 6.9 mph - N/A   Mostly Cloudy
9:15 PM 75.2 °F 66.2 °F 73% 29.89 in 6.2 mi SE 8.1 mph - N/A   Mostly Cloudy
9:45 PM 75.2 °F 64.4 °F 69% 29.89 in 6.2 mi SE 5.8 mph - N/A   Mostly Cloudy
9:55 PM 75.2 °F 64.4 °F 69% 29.89 in 6.2 mi SE 5.8 mph - N/A   Mostly Cloudy
10:15 PM 75.2 °F 66.2 °F 73% 29.92 in 6.2 mi SE 4.6 mph - N/A   Mostly Cloudy
10:45 PM 75.2 °F 64.4 °F 69% 29.89 in 6.2 mi SE 10.4 mph - N/A   Mostly Cloudy
10:55 PM 75.2 °F 64.4 °F 69% 29.89 in 6.2 mi SE 10.4 mph - N/A   Mostly Cloudy
11:00 PM 74 °F 64 °F 63% 29.91 in 9 mi SE 10.4 mph - -   Partly Cloudy
11:15 PM 75.2 °F 68.0 °F 78% 29.89 in 6.2 mi SE 8.1 mph - N/A   Scattered Clouds
11:45 PM 73.4 °F 66.2 °F 78% 29.89 in 6.2 mi SE 8.1 mph - N/A   Mostly Cloudy
11:55 PM 73.4 °F 66.2 °F 78% 29.89 in 6.2 mi SE 8.1 mph - N/A   Mostly Cloudy